This demonstration page uses our WeatherBlox Daily Observations layout. Learn more.

39.29038, -76.61219

Hourly Observations for December 1, 2019

Temp ( °F °C ) Dew Point ( °F °C ) Humidity (%) Winds ( mph kmh ) Pressure ( in mb ) Visibility ( mi km ) Precip ( " mm )
12:54 am 00:54 undefined 42 5.6 27 -2.8 55 55 undefined N/A 29.98 1015 N/A 0 0
1:54 am 01:54 undefined 41 5 29 -1.7 62 62 undefined N/A 29.98 1015 N/A 0 0
2:54 am 02:54 undefined 41 5 27 -2.8 57 57 undefined N/A 29.97 1015 N/A 0.01 0.254
3:54 am 03:54 undefined 41 5 28 -2.2 60 60 undefined N/A 29.91 1013 N/A 0 0
4:54 am 04:54 undefined 40 4.4 30 -1.1 68 68 undefined N/A 29.91 1013 N/A 0 0
5:54 am 05:54 undefined 40 4.4 31 -0.6 70 70 undefined N/A 29.88 1012 N/A 0 0
6:54 am 06:54 undefined 39 3.9 34 1.1 82 82 undefined N/A 29.87 1012 N/A 0 0
7:54 am 07:54 undefined 39 3.9 34 1.1 82 82 undefined N/A 29.88 1012 N/A 0.01 0.254
8:54 am 08:54 undefined 39 3.9 36 2.2 89 89 undefined N/A 29.83 1010 N/A 0.02 0.508
9:54 am 09:54 undefined 39 3.9 37 2.8 93 93 undefined N/A 29.83 1010 N/A 0.01 0.254
10:54 am 10:54 undefined 39 3.9 37 2.8 93 93 undefined N/A 29.8 1009 N/A 0.02 0.508
11:54 am 11:54 undefined 39 3.9 37 2.8 93 93 undefined N/A 29.67 1005 N/A 0.17 4.318
12:54 pm 12:54 undefined 41 5 39 3.9 93 93 undefined N/A 29.62 1003 N/A 0 0
1:54 pm 13:54 undefined 42 5.6 40 4.4 92 92 undefined N/A 29.56 1001 N/A 0.19 4.826
2:54 pm 14:54 undefined 43 6.1 41 5 93 93 undefined N/A 29.52 1000 N/A 0.14 3.556
3:54 pm 15:54 undefined 43 6.1 41 5 93 93 undefined N/A 29.5 999 N/A 0.03 0.762
4:54 pm 16:54 undefined 44 6.7 42 5.6 93 93 undefined N/A 29.49 999 N/A 0.02 0.508
5:54 pm 17:54 undefined 44 6.7 42 5.6 93 93 undefined N/A 29.48 998 N/A 0.01 0.254
6:54 pm 18:54 undefined 44 6.7 41 5 89 89 undefined N/A 29.49 999 N/A 0 0
7:54 pm 19:54 undefined 44 6.7 40 4.4 85 85 undefined N/A 29.49 999 N/A 0 0
8:54 pm 20:54 undefined 42 5.6 38 3.3 85 85 undefined N/A 29.5 999 N/A 0 0
9:54 pm 21:54 undefined 41 5 37 2.8 86 86 undefined N/A 29.49 999 N/A 0 0
10:54 pm 22:54 undefined 40 4.4 36 2.2 86 86 undefined N/A 29.53 1000 N/A 0 0
11:54 pm 23:54 undefined 40 4.4 35 1.7 83 83 undefined N/A 29.53 1000 N/A 0 0

Powered by AerisWeather